Ephrata, WA
on Monday, January 28, 2013

Monday
Previous Day Next Day
Daily Summary
 ActualAverageRecord
Temperature
Mean Temperature °F 31°F  
Max Temperature 32°F 38°F 55°F (1958)
Min Temperature 27°F 24°F -13°F (1957)
Degree Days
Heating Degree Days 35 34  
Month to date heating degree days 1087 1020  
Since 1 July heating degree days 3342 3606  
Cooling Degree Days 0 0  
Month to date cooling degree days 0 0  
Year to date cooling degree days 0 0  
Moisture
Dew Point 25°F   
Average Humidity 85    
Maximum Humidity 92    
Minimum Humidity 78    
Precipitation
Precipitation 0.00 in 0.03 in 0.27 in (2006)
Month to date precipitation 0.18 0.84  
Year to date precipitation 0.18 0.84  
Wind
Wind Speed 5 mph   
Max Wind Speed 32 mph   
Max Gust Speed 32 mph   
Visibility 10 miles   
Events     

Key: T is trace of precipitation, MM is missing value
Source: NWS Daily Summary
Time(PST)TemperatureDew PointHumidity Pressure Visibility Wind DirectionWind SpeedGust SpeedPrecipitationEvents Conditions
12:53 AM 28.9°F 26.1°F 89% 29.97 in 10.0 miles NNW 5.8 mph - N/A   Overcast
1:53 AM 28.0°F 25.0°F 88% 29.97 in 10.0 miles WNW 9.2 mph - N/A   Overcast
2:53 AM 28.9°F 25.0°F 85% 29.96 in 10.0 miles NW 4.6 mph - N/A   Overcast
3:53 AM 28.9°F 26.1°F 89% 29.96 in 10.0 miles West 5.8 mph - N/A   Overcast
4:18 AM 28.4°F 26.6°F 93% 29.92 in 10.0 miles West 4.6 mph - N/A   Overcast
4:43 AM 28.4°F 26.6°F 93% 29.92 in 10.0 miles WNW 6.9 mph - N/A   Overcast
4:53 AM 28.9°F 26.1°F 89% 29.97 in 10.0 miles WNW 6.9 mph - N/A   Overcast
5:53 AM 28.0°F 25.0°F 88% 29.96 in 10.0 miles WNW 5.8 mph - N/A   Scattered Clouds
6:13 AM 28.4°F 24.8°F 86% 29.92 in 10.0 miles WNW 6.9 mph - N/A   Mostly Cloudy
6:53 AM 27.0°F 24.1°F 89% 29.97 in 10.0 miles NW 8.1 mph - N/A   Overcast
7:22 AM 26.6°F 24.8°F 93% 29.93 in 10.0 miles NW 8.1 mph - N/A   Mostly Cloudy
7:53 AM 27.0°F 24.1°F 89% 29.98 in 10.0 miles NW 4.6 mph - N/A   Scattered Clouds
8:53 AM 27.0°F 23.0°F 85% 29.99 in 10.0 miles NW 8.1 mph - N/A   Mostly Cloudy
9:53 AM 28.0°F 24.1°F 85% 29.98 in 10.0 miles WNW 5.8 mph - N/A   Scattered Clouds
10:53 AM 30.0°F 24.1°F 79% 29.99 in 10.0 miles Calm Calm - N/A   Clear
11:53 AM 30.0°F 24.1°F 79% 29.97 in 10.0 miles Calm Calm - N/A   Clear
12:38 PM 30.2°F 24.8°F 80% 29.92 in 10.0 miles Calm Calm - N/A   Overcast
12:53 PM 30.9°F 26.1°F 82% 29.95 in 10.0 miles SSW 3.5 mph - N/A   Overcast
1:53 PM 32.0°F 27.0°F 82% 29.94 in 10.0 miles SSW 3.5 mph - N/A   Scattered Clouds
2:53 PM 30.9°F 26.1°F 82% 29.94 in 10.0 miles SSE 4.6 mph - N/A   Partly Cloudy
3:53 PM 32.0°F 26.1°F 79% 29.93 in 10.0 miles NE 3.5 mph - N/A   Clear
4:32 PM 30.2°F 26.6°F 86% 29.88 in 10.0 miles NE 3.5 mph - N/A   Scattered Clouds
4:53 PM 30.9°F 26.1°F 82% 29.91 in 10.0 miles North 3.5 mph - N/A   Mostly Cloudy
5:43 PM 30.2°F 26.6°F 86% 29.87 in 10.0 miles North 5.8 mph - N/A   Mostly Cloudy
5:53 PM 30.0°F 26.1°F 85% 29.91 in 10.0 miles North 4.6 mph - N/A   Mostly Cloudy
6:53 PM 28.9°F 25.0°F 85% 29.91 in 10.0 miles North 5.8 mph - N/A   Partly Cloudy
7:53 PM 28.9°F 26.1°F 89% 29.90 in 10.0 miles NNW 5.8 mph - N/A   Clear
8:53 PM 28.9°F 26.1°F 89% 29.90 in 10.0 miles North 4.6 mph - N/A   Partly Cloudy
9:53 PM 28.9°F 26.1°F 89% 29.91 in 10.0 miles North 4.6 mph - N/A   Clear
10:53 PM 28.0°F 25.0°F 88% 29.91 in 10.0 miles Calm Calm - N/A   Clear
11:53 PM 28.0°F 25.0°F 88% 29.93 in 10.0 miles Calm Calm - N/A   Clear
Moon Phase
Jan. 28 Feb. 03 Feb. 10 Feb. 17 Feb. 25
Sunrise:07:28 AM (PST) Moon Rise:07:06 PM (PST)1/28
Sunset:04:54 PM (PST) Moon Set:07:46 AM (PST)1/28

Copyright © 2014 The Weather Underground, Inc.